Погода в Большебрусянском

Россия / Свердловская область     56°38′14″N   61°14′24″E
темп.,
°C
ветер,
м/с
пор.,
м/с
влажн.,
%
обл.,
%
осадки,
мм/ч
давл.,
гПа
погр.,
м
21 апреля, ср
ср2123:00+2зсз310710 0.0 1030217
02:00+1сз38780 0.0 1031161
05:00−1зсз24830 0.0 103270
08:00+4ссз23650 0.0 1032220
11:00+9сз22470 0.0 1033878
14:00+12с11370 0.0 10321331
17:00+13ю11350 0.0 10321546
20:00+9ююв225110 0.0 103324
22 апреля, чт
чт2223:00+6ю26635 0.0 1033107
02:00+5ююв366799 0.0 1034114
05:00+3ю397249 0.0 1034168
08:00+6ююв41059100 0.0 1034304
11:00+11ю51042100 0.0 1033969
14:00+12ю6937100 0.0 10331437
17:00+11ю5943100 0.0 10331384
20:00+9ююз5114889 0.0 1033784
23 апреля, пт
пт2323:00+6ю2765100 0.0 1033133
02:00+5ююз2867100 0.0 1032192
05:00+5ю2671100 0.0 1032160
08:00+7ююз3866100 0.0 1033433
11:00+7ююз4675100 0.1 1033927
14:00+9ю5966100 0.4 10311406
17:00+9ю4774100 0.9 10311114
20:00+8юз1181100 0.1 103114
24 апреля, сб
сб2423:00+5ссз1190100 0.1 103010
02:00+6всв2287100 0.0 102956
05:00+6вюв2587100 0.1 1028145
08:00+6юв3795100 1.6 1027297
11:00+8ююв5976100 2.3 10261058
14:00+11юв51050100 0.1 10231931
17:00+9ю5863100 0.1 10231330
20:00+8вюв4962100 0.0 1021606
25 апреля, вс
вс2523:00+6ююв3863100 0.0 1020256
02:00+4вюв4888100 0.1 1018584
05:00+3в4119096 0.1 1016487
08:00+5в4868100 0.0 1014541
11:00+8юв4659100 0.0 10131196
14:00+8ююв3468100 0.1 10121098
17:00+5юз3594100 0.3 1013719
20:00+5юз3992100 0.1 1013680